Flag for U.S.A. Weather past 2 weeks in Lowell, Massachusetts, U.S.A.

Now
70 °F

Clear.


Feels Like: 74 °F
Forecast: 61 / 82 °F
Wind: 8 mph from South

Location: Hanscom Field

Current Time: Jul 31, 2014 at 10:48:59 PM

Latest Report: Jul 31, 2014 at 9:56 PM


Visibility: 10 mi

Pressure: 30.17 "Hg

Humidity: 68%

Dew point: 59 °F

Location of LowellLocation

Historic Weather in Lowell — Graph

°F

Lowell temperature yesterday

Maximum temperature yesterday: 76 °F (at 1:56 PM)
Minimum temperature yesterday: 54 °F (at 4:56 AM)
Average temperature yesterday: 65 °F

Past Weeks' High & Low Weather Summary

 TemperatureHumidityPressure
High90 °F (Jul 23, 2:56 PM)100% (Jul 16, 8:56 PM)30.29 "Hg (Jul 16, 8:56 PM)
Low53 °F (Jul 25, 4:56 AM)39% (Jul 18, 1:56 PM)29.46 "Hg (Jul 28, 5:56 PM)
Average70 °F77%29.98 "Hg
* Reported Jul 16 8:56 PM — Jul 31 8:56 PM, Lowell, Weather by CustomWeather, © 2014

Note: Actual official high and low records may vary slightly from our data, if they occured in-between our weather recording intervals... More about our weather records

Advertising

Lowell weather history for previous 24 hours

 ConditionsComfort  
Time TempWeatherWind HumidityBarometerVisibility
8:56 PM
Jul 31
72 °FPartly sunny.8 mph61%30.15 "Hg10 mi
7:56 PM73 °FSunny.7 mph62%30.13 "Hg10 mi
6:56 PM76 °FPassing clouds.9 mph58%30.11 "Hg10 mi
5:56 PM78 °FPassing clouds.N/A52%30.10 "Hg10 mi
4:56 PM79 °FPassing clouds.12 mph48%30.09 "Hg10 mi
3:56 PM78 °FBroken clouds.10 mph52%30.09 "Hg10 mi
2:56 PM81 °FBroken clouds.8 mph49%30.09 "Hg10 mi
1:56 PM81 °FPassing clouds.13 mph44%30.10 "Hg10 mi
12:56 PM79 °FPassing clouds.12 mph47%30.10 "Hg10 mi
11:56 AM79 °FPassing clouds.15 mph48%30.11 "Hg10 mi
10:56 AM76 °FSunny.5 mph62%30.11 "Hg10 mi
9:56 AM73 °FSunny.7 mph66%30.12 "Hg10 mi
8:56 AM70 °FSunny.6 mph76%30.12 "Hg10 mi
7:56 AM65 °FSunny.N/A87%30.12 "Hg10 mi
6:56 AM59 °FSunny.No wind93%30.11 "Hg10 mi
5:56 AM54 °FClear.No wind100%30.10 "Hg10 mi
4:56 AM54 °FClear.No wind97%30.09 "Hg10 mi
3:56 AM55 °FClear.No wind96%30.09 "Hg10 mi
2:56 AM56 °FClear.No wind93%30.08 "Hg10 mi
1:56 AM56 °FClear.No wind97%30.08 "Hg10 mi
12:56 AM57 °FClear.No wind96%30.07 "Hg10 mi
11:56 PM
Jul 30
57 °FClear.No wind96%30.07 "Hg10 mi
10:56 PM59 °FClear.No wind93%30.06 "Hg10 mi
Weather by CustomWeather, © 2014

See weather overviewHow to use our weather pages